Temp
27 27 26 26 26 26 26 26 26 26 26 26 26 27 27 27 27 27 27 27 27 26 26 26 26 26 26 27 27 27 26 26 26 26 26 25 25 26 26 26 25 26 26 26 26 26 26 26 26 26 26 26 26 27 27 27 27 27 27 26 26 26 26 25 26 27 26 26 27 28 28 27 26 26 26 27 27 26 26 26 25 25 26 26 26
27 27 27 27 27 26 27 27 26 26 27 26 27 27 27 27 27 27 27 27 27 27 27 26 26 26 26 27 27 27 26 26 26 26 26 26 26 26 26 26 26 26 26 26 26 26 26 26 26 26 26 26 25 25 26 26 27 27 27 27 27 27 26 25 26 26 26 26 27 27 27 27 26 26 26 26 26 26 26 26 26 26 27 27 27
27 27 27 27 27 27 27 27 27 26 27 27 27 27 27 27 27 27 27 27 27 27 27 27 27 26 26 26 26 26 26 26 26 26 26 26 26 26 26 26 26 26 26 26 26 26 26 26 26 26 25 25 25 25 25 25 26 27 27 27 27 27 26 25 25 25 26 26 26 26 26 26 26 26 26 26 26 26 26 26 27 27 27 28 28
26 27 27 27 27 27 27 27 27 27 27 27 27 27 28 28 27 27 27 28 28 27 27 27 27 26 26 26 26 26 26 26 26 26 26 26 26 26 26 26 26 26 26 26 27 26 26 25 25 25 24 24 24 25 25 24 25 26 27 26 26 26 26 26 25 25 25 26 26 26 26 26 26 26 26 26 26 26 26 26 27 27 27 28 28
25 25 26 26 27 27 27 27 28 28 27 27 27 28 28 28 28 27 28 28 28 28 27 27 27 26 26 26 26 26 26 26 26 26 26 26 26 26 26 26 26 26 26 26 26 25 24 24 24 24 24 23 24 24 24 24 24 25 25 26 26 26 26 25 25 25 24 24 24 25 25 25 25 25 25 26 26 26 26 26 26 27 27 27 28
24 24 25 26 26 27 27 27 28 28 28 28 28 28 28 28 28 28 28 28 28 28 28 27 27 27 26 26 26 26 26 26 26 26 26 26 26 26 26 26 26 26 26 26 25 24 24 24 23 24 24 23 23 24 24 24 24 24 24 25 26 26 25 25 25 24 24 23 24 24 24 23 23 23 24 25 26 26 26 26 26 27 26 26 27
23 23 24 25 25 26 26 27 27 27 28 28 28 28 28 28 28 28 28 28 28 28 28 27 27 26 26 26 26 26 26 26 26 25 25 26 26 26 26 26 26 26 26 25 24 24 24 23 23 23 23 23 23 23 23 23 23 23 23 24 25 25 25 26 25 24 24 24 25 24 23 22 22 22 23 24 24 24 25 26 26 26 26 26 26
23 23 24 24 25 25 25 26 26 27 27 27 27 28 28 28 28 28 28 28 28 28 28 27 27 26 26 26 26 26 26 26 26 26 25 26 26 26 26 26 26 26 25 24 24 24 24 23 23 23 24 23 23 23 23 23 23 23 24 24 25 24 25 25 25 24 24 25 25 24 22 22 22 22 23 24 23 23 24 25 26 26 26 25 25
23 23 24 24 24 24 24 25 25 26 26 26 26 26 27 27 27 27 27 27 27 27 28 28 27 27 27 26 26 26 26 26 26 26 26 26 26 26 26 25 25 25 25 24 24 24 23 23 23 23 24 23 23 23 23 23 23 23 24 24 24 23 24 24 24 23 23 24 24 23 22 22 22 23 24 24 24 23 23 24 25 25 26 26 25
23 23 23 24 24 24 24 24 24 25 25 25 25 25 26 26 26 26 26 26 26 27 27 27 27 27 27 27 27 26 26 26 26 26 26 26 25 25 25 25 25 24 24 24 24 24 23 23 23 23 23 22 22 22 22 22 22 23 23 23 23 23 23 23 23 23 23 23 24 23 22 23 24 24 24 24 24 23 22 22 24 24 25 25 25
22 23 23 23 23 24 23 23 23 24 24 24 24 24 25 25 25 25 25 25 25 25 26 26 27 27 27 27 27 27 27 26 26 25 26 26 25 25 25 25 24 24 24 24 23 23 23 23 23 23 23 22 22 22 21 22 22 22 22 22 22 22 22 23 23 23 23 23 23 23 23 24 25 24 24 25 24 23 23 23 23 23 22 23 24
22 22 23 23 23 23 23 23 23 23 23 24 24 24 24 24 24 25 25 25 25 25 25 26 26 26 27 27 27 27 27 26 25 25 25 25 25 24 25 25 25 24 24 24 23 23 23 23 23 23 23 23 22 22 22 21 21 21 21 21 21 21 21 22 22 22 22 23 23 23 24 24 24 24 24 24 23 23 22 22 21 21 20 20 22
22 22 22 22 23 23 23 23 23 23 23 23 23 23 23 24 24 24 24 25 25 25 25 25 26 26 26 27 27 27 26 25 25 25 25 25 25 24 24 25 25 24 24 24 23 23 22 22 22 22 23 22 22 22 22 21 21 21 21 21 21 21 21 21 21 21 21 21 22 22 22 23 23 23 22 22 22 21 21 21 21 20 20 19 20
22 22 22 22 22 23 23 23 23 23 23 23 23 23 23 23 24 24 24 24 24 25 25 25 25 25 26 26 26 25 24 24 24 24 24 25 24 24 24 25 25 24 24 23 23 23 22 22 22 22 23 22 22 22 22 22 22 22 22 21 21 21 21 20 20 21 21 21 21 21 20 21 21 21 21 20 20 21 21 21 21 20 20 20 20
22 22 22 22 22 22 23 23 23 23 23 23 23 23 23 23 23 23 24 24 24 24 25 25 25 25 25 25 25 24 23 23 23 23 24 24 24 24 24 24 24 24 23 23 23 23 23 22 22 23 23 22 22 22 22 22 22 22 22 22 21 20 20 20 20 20 20 20 20 19 19 19 19 19 20 19 20 20 20 20 20 20 20 21 21
22 22 22 22 22 22 22 22 22 22 22 23 23 23 23 23 23 23 23 24 24 24 24 25 25 25 24 25 24 23 22 22 22 22 23 23 23 23 24 23 24 24 24 23 22 22 22 22 22 22 22 22 21 21 21 21 21 21 21 20 19 19 19 19 19 19 19 19 19 19 18 18 18 18 19 19 19 19 20 20 20 20 21 21 22
21 22 22 21 21 21 21 21 21 21 21 22 22 22 22 22 22 22 22 23 23 24 24 24 24 23 23 23 23 22 20 21 21 21 22 22 22 23 23 24 24 24 23 22 21 21 21 21 21 22 22 21 20 20 20 20 20 20 19 19 18 18 18 18 18 19 18 18 18 18 18 18 18 18 18 18 18 19 19 19 19 20 20 21 22
19 20 21 21 21 21 21 21 21 21 21 21 22 22 22 22 22 22 22 22 22 22 22 21 22 22 22 22 22 20 19 19 20 20 21 21 21 22 23 23 22 22 21 20 20 19 19 19 20 20 20 20 19 19 19 19 20 20 19 18 18 18 18 18 18 18 18 18 18 18 18 17 17 17 17 18 18 18 18 17 17 18 19 19 20
18 18 19 20 20 20 20 20 20 20 21 21 21 21 21 21 21 21 21 21 21 20 20 20 20 20 19 19 20 19 18 18 19 20 20 21 21 21 21 21 21 21 19 18 18 18 18 18 19 19 18 18 18 18 18 19 19 19 18 18 18 18 18 18 18 18 17 17 17 17 17 17 17 17 17 17 17 17 16 16 16 17 18 18 18
17 17 17 18 19 19 19 19 20 20 20 20 20 20 20 21 21 20 20 19 19 19 18 18 18 17 17 17 18 18 18 18 19 20 20 20 20 20 19 20 20 19 18 17 17 17 17 17 18 18 18 17 18 18 18 18 18 18 18 18 18 17 18 18 17 17 17 16 16 16 16 16 16 17 17 16 16 16 15 15 15 16 17 17 18
16 16 17 17 17 18 18 18 19 19 19 19 19 19 19 20 20 20 19 18 18 18 18 17 17 16 16 16 17 17 18 18 19 20 20 20 19 19 19 19 19 18 17 16 16 16 16 16 16 17 17 17 17 18 18 18 18 18 18 17 17 17 17 17 16 16 16 16 15 15 15 16 16 16 16 16 16 15 15 15 15 15 16 17 17
15 15 16 16 16 16 17 17 18 18 18 18 18 18 18 18 18 18 18 17 17 16 17 17 16 16 16 16 16 17 17 18 19 19 19 19 18 18 18 18 18 17 17 16 15 15 15 15 16 16 17 17 17 17 18 18 18 17 17 17 17 17 16 16 15 15 15 15 15 15 15 16 16 16 16 16 16 16 16 16 15 15 16 16 16
15 15 15 15 15 15 15 15 16 16 16 17 17 16 16 16 16 16 16 16 15 15 15 15 15 15 15 15 16 16 17 17 18 18 18 18 18 17 17 17 17 17 16 15 15 15 15 15 16 16 17 17 17 17 17 17 17 17 17 17 16 16 16 16 15 15 15 15 15 15 16 16 16 16 16 16 16 16 16 16 16 16 16 15 16
14 14 14 14 14 14 14 14 14 14 15 15 15 15 15 15 15 14 14 15 14 14 14 14 15 14 14 15 15 15 16 17 17 17 17 17 17 17 17 17 17 17 16 15 14 15 15 15 16 16 16 16 16 16 16 16 16 16 16 16 16 16 16 16 16 15 15 16 16 16 16 16 16 16 15 15 16 16 16 16 16 16 16 16 15
14 14 14 14 14 14 14 14 14 14 14 14 14 14 14 14 14 14 14 14 14 14 14 14 14 14 14 14 15 15 15 16 16 16 16 16 16 16 16 16 16 16 16 15 14 15 15 15 16 16 16 16 16 16 16 16 16 16 16 16 16 16 16 16 16 16 16 16 16 16 16 16 16 15 15 15 16 16 16 16 16 16 16 16 16
15 14 14 14 14 14 14 13 13 14 14 14 14 14 14 14 14 14 14 14 14 14 14 14 14 14 14 14 15 15 15 15 15 15 16 16 16 16 16 16 16 16 15 15 15 15 15 15 16 16 16 16 15 15 15 15 15 15 16 16 15 15 15 16 16 16 16 16 16 16 16 16 16 16 15 16 16 16 16 17 17 17 17 17 17
16 15 15 14 14 14 14 14 14 14 14 14 14 14 14 14 14 14 14 14 14 14 14 14 15 14 14 15 15 15 15 15 15 15 16 16 16 16 16 15 15 15 15 15 15 15 15 16 16 16 16 16 15 15 15 15 15 15 15 15 15 15 15 15 16 16 16 16 16 16 16 16 16 16 16 16 16 16 16 16 17 17 17 17 18
17 17 16 15 15 14 14 14 14 14 14 14 14 14 14 14 14 14 14 14 15 15 15 15 15 15 15 15 15 15 15 15 15 15 15 15 15 15 15 15 15 15 15 15 15 15 16 16 16 16 16 17 16 16 16 16 16 16 16 16 16 16 16 16 16 16 16 16 16 16 16 16 16 17 17 17 16 16 16 16 16 16 17 17 17
18 18 18 17 16 15 15 14 14 14 14 14 14 14 14 14 14 15 15 15 15 15 15 15 15 15 15 15 15 15 15 15 15 15 15 16 15 15 16 16 16 15 15 15 16 16 16 17 17 17 18 18 18 18 17 17 16 16 16 16 16 16 16 16 16 16 16 16 16 16 16 17 17 17 17 17 16 16 15 15 15 16 16 17 17
18 19 19 18 18 17 16 15 15 14 14 14 14 14 14 15 15 15 16 15 15 15 15 15 15 16 16 15 16 16 15 15 15 16 16 17 16 16 16 16 16 16 16 16 17 17 18 18 18 19 19 18 18 18 17 17 17 17 16 16 16 16 16 16 16 16 16 16 16 16 16 17 16 17 17 17 17 16 16 15 16 16 16 17 17
18 17 17 17 17 17 17 16 16 16 15 15 15 14 14 14 14 15 16 16 16 16 16 16 16 16 16 16 16 16 16 16 16 17 17 17 17 17 17 16 16 16 16 17 18 18 18 18 18 18 18 18 18 18 17 17 17 17 17 16 16 16 15 15 15 15 16 16 16 15 16 16 16 16 16 16 16 16 16 16 16 16 16 16 16
18 17 17 16 16 16 16 16 17 16 16 16 16 16 15 15 14 14 15 16 16 16 16 16 16 17 17 17 17 17 16 17 17 17 17 17 17 17 16 16 16 17 17 17 18 18 18 18 17 17 17 17 17 17 17 17 17 17 17 16 16 15 14 13 14 14 15 15 15 15 15 15 15 15 15 15 15 16 16 15 15 15 16 16 16
19 18 18 17 17 16 17 17 17 17 17 17 17 17 17 16 15 15 15 16 16 16 16 16 16 17 17 17 17 17 17 17 17 17 17 17 17 16 16 16 16 17 17 17 17 17 17 17 17 17 17 17 16 16 16 16 16 16 16 16 15 15 14 13 13 14 15 15 15 15 15 14 15 15 15 15 15 15 15 15 15 15 15 16 15
19 19 19 18 18 17 17 17 18 18 18 18 18 18 18 18 17 17 16 16 16 16 16 16 16 16 16 16 16 16 16 16 17 17 17 16 16 16 16 16 16 17 17 17 17 17 17 17 17 16 16 16 16 16 16 16 16 16 15 15 15 15 14 14 14 14 14 15 15 15 14 14 15 15 15 15 15 15 15 15 15 15 15 15 15
19 19 18 19 19 19 18 18 18 18 18 18 18 18 18 18 18 18 17 17 16 16 15 15 16 16 16 16 16 16 16 16 16 16 16 16 17 17 17 17 17 17 17 17 17 17 17 16 16 16 16 16 15 15 15 15 15 15 15 15 15 14 14 14 14 13 14 14 14 14 14 14 14 15 15 15 15 15 15 15 14 14 14 14 14
20 19 19 19 19 19 19 18 18 18 18 18 19 19 19 19 18 18 18 17 17 16 15 14 15 15 16 16 16 16 16 16 16 16 16 16 17 17 17 18 18 17 17 17 16 16 16 16 16 15 15 15 15 15 15 14 14 14 14 14 14 14 14 13 13 13 13 14 13 13 13 14 14 14 14 14 14 14 14 14 14 13 13 13 13
20 20 20 20 20 19 19 19 18 18 18 19 19 19 19 19 19 19 18 18 18 17 16 15 15 15 15 15 16 16 16 16 16 16 16 16 17 17 18 18 17 17 17 16 16 16 16 15 15 15 15 15 15 14 14 14 14 13 13 13 13 13 13 12 12 12 13 13 13 13 13 13 13 13 14 14 13 13 13 13 13 13 13 12 13
20 20 20 19 19 19 19 19 19 19 19 19 19 19 19 19 19 19 19 18 18 18 17 17 17 16 16 15 15 16 16 16 16 16 17 17 17 17 17 17 17 17 16 16 16 16 16 15 15 15 15 14 14 14 14 14 14 14 13 13 13 13 13 13 12 12 13 13 13 13 13 13 13 13 13 13 13 13 13 13 13 13 13 13 13
19 19 19 19 19 20 20 19 19 19 20 20 20 20 20 20 19 19 19 19 19 19 18 18 18 17 17 16 16 16 17 17 17 17 17 18 18 17 17 17 17 16 16 16 15 15 15 15 14 14 14 14 14 14 14 14 13 13 13 14 13 13 13 13 13 12 13 13 12 12 13 13 13 13 12 12 12 12 12 12 12 12 12 12 12
18 18 18 19 19 20 20 20 20 20 20 20 20 20 20 20 20 20 20 19 19 19 19 19 18 18 17 17 17 17 18 18 18 18 18 18 17 17 17 17 16 16 16 16 15 15 15 14 14 14 14 14 13 13 13 14 13 13 13 13 13 13 13 13 12 12 12 12 12 12 12 12 12 12 12 12 12 12 12 12 12 12 12 12 11
18 18 18 19 19 19 20 20 20 20 20 20 20 20 20 20 20 20 20 20 20 19 19 19 18 17 17 17 17 17 18 18 18 18 18 18 17 17 17 17 16 16 16 15 15 15 14 14 14 14 13 13 13 13 13 13 13 13 13 13 13 13 13 12 12 12 12 12 11 12 12 11 11 12 12 11 12 12 11 11 11 11 11 11 11
18 18 19 19 19 19 20 20 20 20 20 20 20 19 19 19 19 20 20 20 20 19 19 19 18 17 16 17 17 17 18 18 18 18 18 17 17 17 17 16 16 16 16 15 15 14 14 14 14 13 13 13 13 13 13 13 13 13 13 13 12 12 13 12 12 11 11 11 11 11 11 11 11 11 11 11 11 12 11 11 11 11 11 11 11
18 19 19 19 19 19 19 19 19 20 20 19 19 19 19 19 19 19 19 19 19 19 19 19 18 17 17 17 17 17 18 18 18 18 18 17 17 17 16 16 16 16 15 15 14 14 14 14 13 13 13 12 12 12 12 12 12 12 12 12 12 12 12 12 11 11 11 11 11 11 11 11 11 12 12 11 11 12 11 11 11 11 11 11 11
18 18 18 18 19 19 19 19 19 19 19 18 18 18 19 19 19 19 19 19 19 19 19 19 18 18 17 17 17 18 18 18 18 18 17 17 17 17 16 16 15 15 15 14 14 14 14 13 13 12 12 11 11 11 11 12 12 12 12 12 11 11 11 11 10 10 10 10 11 11 11 11 11 11 11 11 11 11 11 10 10 10 10 10 10
18 18 18 18 18 18 18 18 18 18 18 18 18 18 18 19 19 19 19 19 19 19 19 19 18 18 18 17 17 18 18 18 17 17 17 17 17 17 16 15 15 14 14 14 13 13 13 13 12 12 11 11 11 11 11 11 11 11 11 11 11 10 10 10 10 10 10 10 11 11 11 11 10 10 11 11 11 11 10 10 9 9 9 9 9
18 18 18 18 18 18 18 18 18 18 18 18 18 18 18 18 18 18 18 18 18 18 18 18 18 18 17 17 17 17 17 17 17 17 17 17 16 16 16 15 15 14 14 13 13 13 12 12 12 11 11 11 11 10 10 10 10 10 10 10 10 10 9 9 9 10 10 10 10 10 10 10 10 10 10 11 11 10 9 9 9 9 9 9 9
19 19 19 18 18 18 18 18 18 18 18 18 18 18 18 18 18 17 17 17 17 18 18 18 18 17 17 17 17 17 17 17 17 16 16 16 15 15 15 14 14 14 13 13 12 12 12 12 11 11 10 10 10 10 10 10 10 9 9 9 9 9 8 8 9 9 9 9 9 10 10 10 10 10 10 10 10 9 9 9 9 9 9 9 9
18 18 18 18 18 18 18 17 17 17 17 17 17 17 17 17 17 17 17 17 17 17 18 17 17 17 17 17 17 17 17 16 16 16 15 15 15 14 14 14 13 13 13 12 12 12 12 11 11 10 10 9 9 9 9 9 9 9 9 8 8 7 7 7 7 8 9 9 9 9 10 10 10 9 9 9 9 9 9 9 9 8 8 8 8
18 18 18 18 18 18 18 17 17 17 17 17 17 17 17 17 17 17 17 17 17 17 17 17 17 17 16 16 16 16 16 16 16 15 15 15 14 14 13 13 13 13 13 12 12 11 11 10 10 10 9 9 9 9 9 9 8 8 8 7 6 6 6 6 7 7 8 8 9 9 9 9 9 9 8 8 8 8 8 8 8 8 8 8 8
18 18 18 18 18 18 17 17 17 17 17 17 17 17 16 16 16 16 16 16 16 16 16 16 16 16 16 16 16 15 15 15 15 15 15 14 14 13 13 13 13 13 12 12 11 11 10 10 10 9 9 9 9 9 9 8 8 7 7 6 6 6 6 6 7 7 7 8 8 9 9 8 8 8 8 8 8 8 8 8 8 8 8 8 8
18 18 18 17 17 17 17 17 17 16 16 16 16 16 16 16 16 16 15 15 15 15 15 15 15 15 15 15 15 15 15 15 15 14 14 14 13 13 12 12 12 12 12 11 11 11 10 10 10 9 9 9 9 9 8 8 7 7 6 5 5 6 6 6 6 7 7 7 8 8 8 8 8 8 7 8 8 8 8 7 7 7 7 7 7
Height
794 796 797 799 800 801 803 805 807 808 809 810 812 813 815 815 817 818 819 820 821 822 823 824 825 826 827 827 827 828 829 829 830 830 831 832 832 832 832 832 833 833 833 833 833 833 833 833 833 832 832 832 831 831 830 829 829 829 829 829 828 828 828 828 826 824 823 821 820 818 818 818 818 818 818 818 817 818 818 818 818 818 818 817 817
792 793 795 796 798 799 801 802 804 806 806 808 809 810 812 813 815 816 816 818 819 820 821 822 823 824 824 825 826 826 827 828 829 829 829 830 830 830 831 831 832 832 832 832 832 832 832 832 832 832 831 831 830 829 829 828 827 826 826 826 826 826 826 826 825 823 821 820 819 818 817 817 817 817 817 817 816 816 816 816 816 815 815 815 814
790 791 792 794 795 797 799 800 801 803 804 805 806 807 809 810 812 813 814 815 816 818 819 819 821 822 822 823 824 825 825 826 827 827 828 828 828 829 829 829 830 830 831 831 831 831 831 831 831 830 831 830 829 828 828 827 826 825 825 825 824 824 824 824 824 822 820 819 818 817 816 816 816 816 816 816 815 815 815 814 814 813 813 813 813
789 790 790 792 793 794 796 797 798 800 801 802 804 805 806 807 809 810 812 813 814 815 817 817 819 820 821 821 822 823 824 824 825 825 826 827 827 827 828 828 829 829 829 829 830 829 829 830 830 829 830 829 828 827 827 826 825 824 823 823 823 823 822 822 822 822 820 819 818 817 815 815 815 815 815 814 814 813 813 813 812 812 811 811 811
788 788 789 790 791 791 793 794 795 797 798 800 801 802 803 804 806 807 809 810 811 813 814 815 816 817 818 819 820 821 822 822 823 824 824 825 825 826 826 827 827 828 828 828 828 828 828 828 828 828 829 828 827 827 826 825 825 824 823 822 821 821 821 821 821 820 819 819 818 817 816 816 815 815 814 814 813 812 812 812 811 811 810 810 809
786 787 787 788 789 789 790 791 792 794 796 797 798 800 801 802 803 805 806 807 809 810 811 813 814 815 816 817 818 819 820 821 821 822 823 823 823 824 824 825 825 826 826 826 826 826 827 827 826 826 827 827 827 826 824 824 824 822 822 821 820 820 820 819 819 818 818 818 817 816 817 817 817 816 815 814 813 812 811 811 809 809 809 809 808
783 784 785 786 787 787 788 789 790 792 793 795 796 797 799 800 801 803 804 805 806 807 809 810 811 813 814 815 816 817 818 819 819 820 821 821 821 821 822 822 823 824 825 824 824 825 826 825 825 825 826 825 824 824 823 822 822 821 820 820 819 819 818 817 817 817 817 815 815 816 816 817 817 816 815 814 813 812 811 810 808 808 808 808 808
781 782 783 783 784 785 786 788 789 790 791 793 794 796 797 798 799 801 802 803 804 804 806 807 809 810 812 813 814 815 815 817 817 818 818 819 819 819 820 821 822 823 823 823 822 823 823 823 823 824 823 822 822 822 822 821 820 820 819 819 818 818 817 817 816 816 815 814 814 814 815 815 815 814 814 813 812 811 811 810 808 807 807 807 807
778 779 780 780 782 783 784 786 787 788 790 791 792 794 795 796 797 799 800 801 802 803 803 804 806 807 809 810 811 812 813 814 814 815 816 816 817 817 818 819 820 821 822 821 821 821 821 820 821 821 820 819 820 820 820 819 819 818 818 818 818 817 817 816 816 815 815 814 813 813 814 815 814 813 812 811 811 810 810 810 808 806 806 805 805
776 777 777 778 779 780 782 784 785 786 788 789 790 792 793 795 796 797 799 800 801 801 802 802 803 804 806 807 808 809 810 811 811 812 813 814 815 816 817 818 819 819 820 820 820 819 819 819 819 818 817 817 818 818 817 817 817 816 816 816 817 816 816 815 815 814 814 813 812 812 812 812 811 810 810 810 810 809 809 809 807 806 806 805 804
774 774 775 775 777 778 779 781 782 784 785 787 788 790 792 793 794 795 796 798 799 800 801 801 802 803 803 804 806 806 807 807 808 809 811 812 813 814 815 816 816 817 818 818 818 817 817 817 817 816 815 815 815 815 815 815 814 814 814 814 814 814 814 814 813 813 813 812 811 810 810 809 808 808 808 808 808 808 808 808 807 807 808 808 806
772 772 772 773 774 775 777 777 779 781 783 784 786 787 789 791 792 793 793 794 796 797 799 800 800 801 801 802 803 804 804 804 805 807 809 809 811 812 813 814 814 814 815 815 816 815 814 814 814 814 814 814 814 814 814 813 813 812 812 812 812 812 812 812 812 812 811 811 810 809 809 808 807 808 808 808 808 808 808 808 808 809 810 811 810
770 770 770 771 772 773 774 775 776 777 779 781 783 785 787 788 789 790 791 792 793 794 796 797 798 799 800 800 801 802 802 802 804 806 807 807 809 810 811 812 812 812 813 813 813 813 812 812 813 813 814 813 813 813 813 812 812 811 811 810 810 810 810 810 810 810 810 810 809 809 809 808 808 808 808 808 808 808 808 808 808 808 809 810 810
767 767 768 769 769 770 771 772 773 775 776 778 780 782 784 785 786 788 789 790 790 791 793 795 796 797 798 799 800 801 800 801 802 804 805 806 807 808 809 810 810 810 811 811 811 811 810 811 812 812 812 812 812 812 812 811 811 810 810 810 810 810 810 810 810 810 810 809 809 809 809 809 809 808 808 809 809 808 808 808 808 808 808 807 808
764 764 765 766 767 768 769 770 771 773 774 775 777 779 781 783 784 786 787 787 788 789 791 792 793 795 796 797 799 799 799 800 802 803 804 805 805 806 808 809 809 809 809 809 810 809 809 809 810 810 811 811 811 810 810 810 810 809 810 810 810 811 811 811 810 810 809 809 809 809 809 809 809 809 808 809 809 809 809 808 808 808 807 806 806
762 762 763 764 765 767 768 768 770 771 772 773 774 776 779 780 782 783 784 785 786 787 788 790 791 792 793 795 796 797 797 799 801 802 803 804 804 805 807 807 808 808 808 808 809 808 809 809 809 809 809 809 809 809 809 809 808 809 809 808 808 810 812 813 812 810 810 810 809 809 810 810 809 809 809 809 809 809 808 808 808 808 807 806 805
761 761 762 763 764 766 767 767 769 770 771 772 773 774 776 778 780 780 781 783 784 786 787 788 790 791 792 793 795 796 797 798 800 801 802 802 803 805 806 806 806 807 807 808 808 808 808 807 807 808 808 807 808 808 808 808 808 808 808 807 809 811 813 813 812 811 811 812 811 811 811 811 810 810 809 809 809 808 808 808 809 808 807 807 805
761 760 760 762 763 765 766 767 768 769 770 771 772 773 774 776 777 778 779 780 782 784 786 787 788 789 791 792 794 794 796 797 799 800 801 801 802 803 804 804 805 806 806 807 807 806 806 805 805 806 806 806 807 807 807 807 808 808 808 809 811 812 813 813 812 812 813 813 813 813 813 813 812 811 811 810 809 809 809 809 810 809 808 808 807
763 761 761 761 762 764 765 766 766 767 768 770 771 772 773 774 775 776 778 779 781 783 784 785 787 789 791 792 793 794 795 796 798 799 800 800 801 801 803 803 804 805 806 806 806 806 806 806 805 805 806 806 806 806 806 807 807 808 809 811 813 813 813 813 813 813 814 815 815 815 815 815 814 813 813 812 811 810 810 811 811 811 810 810 810
764 763 762 761 761 762 763 764 765 766 767 768 769 770 772 773 774 776 776 777 779 782 783 784 787 789 792 793 794 795 795 795 797 798 799 800 800 801 802 802 803 804 805 806 807 807 807 807 806 806 806 806 807 807 807 807 808 809 810 812 814 815 814 814 814 815 816 817 817 817 816 816 816 815 815 814 814 813 813 813 813 813 813 812 812
766 765 763 763 762 762 762 763 764 764 766 767 768 770 771 773 774 775 775 777 779 781 782 783 786 788 791 793 794 794 795 795 796 797 798 799 800 801 801 801 802 803 805 807 807 808 808 808 808 808 808 808 808 808 808 809 810 811 812 814 815 815 815 815 816 817 818 818 818 818 818 818 818 817 817 816 816 816 816 815 815 815 815 814 814
768 766 765 764 764 764 763 763 764 765 766 767 768 770 772 774 775 774 774 776 779 780 781 783 785 787 789 791 792 793 794 795 795 795 796 798 799 801 801 801 802 803 805 807 808 809 810 810 811 811 810 810 811 810 811 812 812 813 815 816 817 817 817 818 819 819 820 820 819 819 819 819 819 819 819 818 818 818 818 818 818 817 817 816 816
771 769 768 767 766 767 766 765 766 767 767 768 769 771 773 775 776 775 775 777 780 781 781 781 784 787 789 790 792 793 794 795 795 795 796 798 799 801 801 802 803 803 805 807 809 811 812 812 813 813 812 813 814 813 814 815 815 816 818 819 819 820 820 820 821 822 822 821 821 820 820 821 821 821 821 820 820 820 820 820 820 819 819 818 818
774 772 772 770 769 770 770 769 769 770 770 770 771 773 774 776 777 779 779 779 781 784 783 783 786 789 790 792 793 795 795 796 796 796 797 798 800 801 802 803 804 805 807 809 810 812 813 814 815 815 815 816 817 817 817 818 819 820 821 821 822 822 823 823 824 824 824 824 823 823 823 823 823 823 823 822 822 822 822 821 821 821 820 819 819
776 776 775 774 773 773 773 773 773 774 775 775 775 777 779 779 780 782 783 783 784 786 787 787 788 790 792 793 796 798 798 797 798 799 799 801 802 803 804 806 807 808 809 811 813 815 816 817 817 817 818 819 820 821 822 822 822 823 823 823 824 824 825 826 827 827 826 826 826 826 825 825 826 825 825 824 824 823 823 823 822 822 821 820 820
779 779 778 777 777 778 778 778 778 779 780 779 778 779 781 781 782 784 787 787 788 789 790 790 791 792 794 796 798 799 800 801 802 803 804 804 805 807 808 809 811 811 812 815 817 818 819 820 819 820 821 822 823 824 825 826 826 825 825 825 826 827 828 828 829 829 828 828 828 828 827 827 827 827 826 826 825 825 825 824 824 823 822 821 821
782 781 781 781 781 781 781 781 781 782 782 781 781 782 783 783 785 788 790 792 792 791 791 792 793 795 797 799 799 800 802 804 805 806 807 808 808 810 811 813 814 815 817 819 821 821 822 822 822 823 825 825 826 827 828 829 829 829 829 829 829 830 830 830 830 830 830 830 830 830 829 829 829 828 828 827 827 827 826 826 825 824 823 822 821
784 784 784 784 784 784 784 783 783 784 785 784 785 786 788 788 789 791 793 794 795 795 795 795 797 799 800 801 802 802 804 806 807 808 810 811 812 813 814 816 818 819 821 823 824 824 825 825 826 827 828 829 829 830 831 832 832 832 832 832 832 832 832 832 832 832 832 832 832 831 831 831 830 829 829 828 828 828 827 827 826 826 824 824 823
787 788 788 788 789 789 789 788 789 790 789 789 789 791 792 792 793 794 795 796 796 797 798 798 800 801 802 804 804 805 806 809 810 811 813 814 815 816 817 819 820 822 823 825 826 827 827 828 829 830 830 831 832 833 834 835 835 835 835 835 834 834 834 834 834 834 834 834 834 833 833 832 831 831 830 829 829 829 829 828 828 827 826 825 824
790 790 791 792 793 793 794 794 794 795 795 794 794 795 796 797 798 798 798 799 799 800 800 801 802 803 803 805 807 808 809 811 813 815 815 816 817 818 819 821 822 824 825 826 827 828 828 829 830 831 832 833 835 836 837 837 837 837 837 837 837 837 837 837 836 836 836 836 835 835 834 833 833 832 831 831 830 830 830 830 829 828 826 825 824
794 794 794 795 795 796 797 797 798 798 799 799 799 800 801 802 803 803 803 803 803 804 804 804 805 806 806 807 809 811 813 815 816 818 819 819 820 821 822 823 825 826 827 828 828 829 830 831 832 834 835 836 837 838 839 839 839 839 839 839 840 839 839 839 839 838 838 837 837 836 835 835 834 834 833 833 832 831 831 830 829 828 827 826 826
797 797 798 799 798 798 799 800 800 801 802 802 803 804 804 805 806 807 807 807 807 807 808 808 810 810 811 811 812 814 817 818 820 821 822 823 823 824 825 827 828 829 830 830 831 832 833 834 836 837 838 839 839 840 840 841 841 841 841 842 842 842 842 841 840 840 840 839 838 838 837 837 836 835 835 835 833 833 832 831 831 830 828 827 827
800 800 801 802 802 802 802 803 804 804 805 805 806 806 807 807 808 809 811 811 811 811 812 813 814 815 816 817 817 818 820 822 823 824 825 826 827 828 829 830 831 832 832 832 833 834 836 837 838 839 840 841 841 842 842 843 843 844 844 844 844 844 844 843 842 842 841 840 840 839 839 838 838 837 836 836 835 834 833 832 831 831 829 829 828
802 803 803 804 805 805 805 806 806 807 807 808 808 809 810 810 811 812 813 814 815 816 816 818 819 819 820 821 822 823 824 825 826 827 828 829 830 831 832 833 833 834 834 835 836 837 838 839 841 841 842 843 843 844 844 845 845 845 845 846 846 846 846 845 844 843 843 842 841 841 840 840 839 838 837 836 835 835 834 833 833 832 831 830 830
805 805 806 806 806 807 807 808 808 809 810 810 810 811 812 813 814 815 816 817 818 819 821 822 823 824 824 825 826 826 827 828 829 830 830 831 832 833 834 835 835 836 837 837 838 839 841 842 843 844 844 845 845 846 846 847 847 847 847 848 848 848 847 847 846 845 844 844 843 842 842 841 840 839 838 838 837 836 835 835 835 835 834 833 832
807 807 807 807 808 808 809 810 811 811 812 812 812 813 814 815 816 817 819 820 821 822 824 825 826 827 827 828 828 829 830 830 831 832 833 834 834 835 836 836 837 838 839 840 841 842 843 844 845 846 846 847 847 848 848 848 849 849 849 849 849 849 849 848 848 847 846 845 845 844 843 842 841 840 839 839 838 838 837 837 837 837 837 836 835
808 808 808 809 809 810 811 811 812 813 814 814 814 815 816 817 818 819 821 822 823 825 826 827 828 829 830 830 831 831 832 833 833 834 835 836 836 836 837 838 839 840 841 842 844 844 845 846 847 847 848 849 849 850 850 850 851 851 851 851 851 851 850 850 849 848 847 846 846 845 844 843 843 842 841 840 840 840 839 839 838 838 838 838 836
810 810 810 811 811 811 812 813 814 814 815 815 816 817 818 819 820 821 823 824 825 826 828 829 830 831 832 833 833 834 834 835 836 836 837 837 838 838 839 840 841 842 843 844 846 846 847 848 848 849 850 850 851 851 851 852 852 852 852 852 852 852 851 851 850 849 848 847 847 846 845 844 844 844 843 842 842 842 841 841 840 839 839 838 837
812 812 812 813 813 813 814 815 815 816 816 816 817 818 819 820 821 822 823 824 826 827 828 829 830 832 833 834 835 835 835 835 836 837 838 838 839 840 841 842 843 844 845 846 847 848 849 849 850 851 851 852 852 853 853 853 853 853 853 853 852 852 852 851 850 850 849 848 848 847 846 846 845 845 845 844 844 843 843 842 842 841 840 839 839
813 814 814 814 815 815 815 816 816 817 817 818 819 819 820 821 822 823 824 825 826 827 828 829 831 832 833 834 834 834 835 835 836 837 838 840 841 842 842 843 845 846 846 847 848 849 850 851 851 852 853 853 853 854 854 854 854 854 854 853 853 853 852 852 851 851 850 850 849 849 848 848 847 847 847 846 845 845 844 843 843 842 842 841 840
815 815 815 816 817 817 816 817 817 817 818 819 819 820 821 822 822 823 824 825 826 827 829 830 832 833 833 834 834 834 835 835 837 838 839 840 841 842 843 844 845 846 847 848 849 849 850 851 852 853 853 854 854 854 854 855 855 855 855 855 854 854 854 853 853 852 852 851 851 850 850 849 849 848 848 847 846 846 845 845 844 844 843 842 841
816 816 816 817 818 818 818 818 819 819 820 820 820 821 822 823 823 824 825 826 827 828 829 831 833 834 834 835 835 835 835 836 837 838 839 840 841 842 843 845 845 846 847 848 849 850 851 851 852 853 854 855 855 855 856 856 856 856 856 856 855 855 855 854 854 853 853 852 852 851 851 850 850 849 849 848 847 847 846 846 845 845 844 843 842
817 817 817 818 818 818 819 819 820 820 821 821 822 823 823 823 824 825 826 826 827 828 829 831 833 834 835 835 836 836 836 836 837 838 839 840 842 842 843 845 845 846 847 848 849 850 851 852 853 854 855 856 856 857 857 857 857 857 857 857 856 856 855 855 855 854 853 853 853 852 851 851 850 850 850 849 848 848 847 847 847 846 845 844 843
818 818 818 819 819 820 820 820 820 821 822 823 824 824 824 825 825 826 826 827 828 828 829 831 832 833 835 835 836 836 836 837 838 839 840 841 842 842 843 845 846 847 848 849 850 851 852 853 854 855 856 856 857 857 858 858 858 858 858 857 857 857 856 856 856 855 854 854 853 852 852 852 851 851 850 850 850 849 848 848 848 848 847 846 845
818 819 819 820 820 821 821 822 822 823 823 824 824 825 825 826 826 826 827 828 829 829 830 831 832 833 834 835 836 837 837 838 839 839 840 841 842 843 844 846 847 848 849 850 851 852 853 854 855 856 856 857 858 858 858 858 858 859 859 858 858 858 857 857 857 856 855 855 854 853 853 853 853 852 851 851 850 850 850 850 850 849 849 848 847
818 818 819 820 821 821 822 823 823 823 824 824 825 825 826 826 827 827 828 829 829 830 831 831 832 834 834 835 836 837 837 838 839 840 841 841 842 843 845 846 847 848 849 851 852 853 854 855 856 856 857 857 858 858 859 859 859 859 859 859 859 858 858 857 857 856 856 855 855 854 854 854 854 854 853 852 851 851 852 851 851 850 850 850 849
817 818 819 820 821 822 823 823 824 824 824 825 825 826 827 828 828 829 830 830 831 831 831 832 833 834 835 836 837 837 838 839 839 840 841 842 843 844 845 846 848 849 850 851 852 854 855 856 856 857 857 858 858 858 859 859 860 860 859 859 858 858 857 857 857 857 857 856 856 855 854 854 854 854 854 853 853 853 853 852 852 851 851 851 850
817 818 819 820 821 822 823 824 824 825 825 826 826 827 828 828 829 830 830 831 832 832 832 833 834 835 836 837 837 838 838 839 840 841 842 842 843 845 846 847 848 850 851 852 853 854 855 856 856 857 858 858 858 859 859 859 859 860 859 859 858 856 856 856 856 857 857 857 856 856 855 855 855 855 855 855 855 854 854 854 853 853 852 852 851
818 818 819 820 821 822 823 824 824 825 825 826 827 828 828 829 829 830 830 831 832 832 833 834 835 836 837 837 838 838 839 840 840 841 842 843 844 846 847 848 849 850 851 852 854 854 855 856 856 857 858 858 859 859 859 859 859 860 859 858 857 856 856 856 856 856 857 857 857 857 856 856 856 856 856 856 856 855 855 855 854 854 853 852 852
818 819 820 821 821 822 823 824 825 825 826 827 827 828 829 829 830 830 831 832 832 833 834 834 835 836 837 837 838 839 839 840 840 842 842 844 845 846 847 848 850 851 852 853 854 855 855 856 856 857 858 858 859 859 859 859 859 859 858 857 856 856 856 856 856 857 856 857 857 857 857 857 857 857 857 857 856 856 856 856 855 854 854 853 852
818 819 820 821 822 823 824 825 825 826 827 827 828 829 829 830 830 831 832 832 833 833 834 835 835 836 837 837 838 839 839 840 841 842 843 844 846 847 848 849 850 851 852 853 854 855 856 856 857 857 858 858 859 859 859 859 858 857 857 856 856 857 857 857 857 857 857 857 857 858 858 858 858 858 858 857 857 856 856 856 856 855 854 853 853
Wind_Speed
17 17 17 17 17 18 19 20 19 19 18 18 17 17 16 16 15 14 14 13 13 13 13 13 12 12 12 11 11 11 11 10 10 10 10 10 10 10 9 7 8 9 8 8 8 7 7 7 7 7 7 7 7 8 8 8 7 7 7 7 8 7 6 6 8 8 8 9 8 7 5 5 4 2 3 4 3 2 3 3 5 7 8 9 10
17 17 17 17 18 18 19 19 20 20 20 19 19 18 17 17 17 16 15 15 14 14 14 13 13 13 12 12 11 11 10 10 11 11 10 11 11 11 10 9 9 9 8 8 8 8 7 7 7 7 7 7 7 8 9 9 9 8 8 8 8 7 5 5 8 8 8 8 8 8 6 5 5 4 3 5 4 4 5 5 6 7 7 8 9
16 16 16 17 17 18 19 19 19 20 21 21 20 20 19 18 18 18 17 16 16 15 15 14 14 13 13 12 11 11 11 11 11 11 11 10 11 10 10 9 9 9 9 8 8 8 7 7 8 8 8 9 9 10 10 10 10 10 9 9 9 9 7 6 8 9 9 9 8 9 8 5 5 6 5 5 5 5 6 7 7 7 7 8 8
14 15 16 17 17 18 19 19 20 20 21 21 21 20 20 19 18 18 18 17 17 16 16 15 14 13 13 12 11 12 12 12 12 12 11 10 10 10 9 8 9 9 9 9 9 8 7 8 10 9 10 11 11 12 12 11 11 10 10 9 9 9 8 7 7 8 9 9 9 8 7 6 6 6 6 6 6 6 6 7 7 7 8 8 8
15 15 16 17 17 18 19 20 20 21 21 21 21 21 20 19 19 18 18 18 17 16 16 15 15 14 14 13 12 12 12 13 13 12 11 10 10 9 9 9 9 9 9 9 8 7 7 8 10 12 12 12 11 12 12 11 10 10 10 9 9 9 8 7 7 8 7 9 10 8 7 7 7 6 6 6 6 6 6 6 7 7 7 8 9
17 17 16 16 17 18 18 19 20 21 21 21 21 21 20 20 19 18 18 18 17 16 16 15 15 15 14 13 13 12 13 13 13 13 12 12 11 10 10 10 10 9 8 7 6 7 8 8 9 11 12 11 11 11 11 11 10 9 10 10 9 8 8 8 7 7 7 8 9 8 7 9 9 7 6 6 6 6 6 7 7 6 5 7 8
19 18 18 18 17 17 17 18 19 19 20 20 20 20 20 20 20 19 18 18 18 17 16 15 14 14 14 14 13 13 13 13 13 13 13 12 12 11 11 10 9 7 6 6 8 8 7 8 10 10 10 11 13 13 12 11 10 10 10 10 9 8 9 8 7 6 7 8 8 6 6 8 10 10 7 6 6 7 7 7 6 5 4 6 7
19 20 19 19 19 17 17 17 17 17 17 18 18 19 19 19 19 19 18 18 18 18 17 16 15 14 14 14 13 13 13 13 13 13 13 13 13 12 11 9 8 7 5 6 8 7 7 10 11 10 11 12 13 12 11 10 10 10 10 9 8 8 8 7 6 6 7 8 7 4 4 7 9 9 8 6 6 6 7 7 7 6 6 6 6
17 19 20 20 20 19 17 15 14 15 15 15 16 17 18 18 18 18 18 18 18 17 17 18 17 16 15 14 13 13 13 13 13 12 12 11 10 10 9 9 8 8 6 6 7 6 7 10 11 12 13 12 11 11 11 12 11 10 9 8 7 7 7 6 6 6 7 7 7 5 5 8 9 7 6 6 5 5 7 8 8 7 7 6 5
15 18 19 20 20 19 18 15 13 14 14 15 16 16 16 17 17 17 17 17 17 17 17 17 17 16 16 15 14 13 13 14 13 13 13 11 9 9 9 8 8 8 7 7 7 7 9 11 11 12 13 12 11 11 12 13 14 13 10 9 8 7 7 7 7 7 7 7 7 6 7 9 9 7 6 5 5 5 7 9 9 7 8 8 5
14 16 18 19 19 19 18 16 14 14 14 14 14 14 14 14 15 16 17 16 16 16 16 17 17 17 16 16 15 14 14 14 15 15 15 13 10 9 9 9 8 8 7 7 7 9 11 12 11 10 10 9 9 11 12 14 15 14 12 11 11 9 8 7 7 7 8 8 8 7 8 9 7 5 5 5 4 5 6 8 9 10 11 10 8
15 15 17 18 19 19 19 17 16 16 15 15 14 13 13 14 14 15 16 17 16 16 17 17 17 16 16 16 15 14 13 14 16 15 13 10 7 6 8 8 8 8 8 7 8 10 10 10 9 8 9 10 10 10 11 12 12 11 10 11 11 10 10 10 9 8 7 7 7 7 7 7 5 4 4 4 5 6 7 7 8 9 11 13 13
15 16 16 17 18 20 20 19 19 18 18 18 16 14 13 14 15 16 17 17 16 16 16 16 15 16 15 15 14 12 11 13 15 13 10 8 7 6 6 7 8 7 7 7 9 10 10 9 9 9 11 11 10 9 9 9 9 9 8 8 8 9 10 10 10 9 9 8 7 7 6 5 5 4 4 4 5 6 7 7 8 8 10 12 16
15 16 17 17 18 20 20 20 19 19 19 19 18 16 14 14 14 15 15 15 16 16 15 15 15 14 14 14 13 10 10 12 13 11 9 8 7 6 6 7 6 6 7 7 8 9 8 8 9 9 9 9 9 9 10 10 9 8 8 8 7 6 5 4 4 6 7 6 5 5 5 4 5 5 5 5 6 6 7 7 8 10 11 12 14
15 16 16 17 17 18 19 19 19 18 18 18 18 17 16 15 14 13 14 14 15 15 15 14 15 14 13 13 11 8 10 11 11 9 9 8 7 6 5 5 5 5 6 6 5 5 5 5 6 8 8 8 9 10 10 9 8 8 8 6 4 2 0 1 0 1 1 1 1 3 4 4 4 5 6 6 7 7 9 9 9 10 12 13 12
13 14 13 13 13 13 14 16 17 17 17 17 17 16 16 16 14 13 13 13 12 13 13 13 13 12 12 11 9 7 9 10 9 9 9 8 6 5 4 5 5 6 5 3 3 4 5 5 7 8 8 8 9 11 12 10 10 9 7 4 3 3 5 6 5 5 5 4 4 6 6 6 6 7 8 9 8 8 9 9 8 8 9 10 8
6 10 11 11 11 11 13 14 15 16 16 16 16 16 15 15 15 14 14 12 11 11 11 10 10 10 10 10 8 6 7 8 7 7 8 7 5 4 4 5 5 4 3 2 3 4 4 5 7 7 7 6 8 11 13 11 9 7 3 6 7 6 6 8 8 8 9 9 9 9 9 9 10 10 9 10 9 6 6 6 7 9 9 7 6
7 4 8 11 13 14 15 15 14 15 16 16 15 14 12 13 14 15 13 11 9 9 7 8 9 9 7 7 7 6 4 6 6 5 6 6 4 3 4 4 3 2 1 1 1 2 2 3 5 4 4 5 7 8 8 7 6 3 4 9 9 8 7 9 11 11 12 12 12 11 11 12 12 12 12 12 11 9 9 9 9 9 7 7 8
10 7 3 7 12 13 14 15 15 16 16 15 13 12 11 12 13 13 11 11 10 9 8 9 9 8 6 7 8 7 4 5 5 4 4 4 3 2 2 2 2 2 4 5 4 4 5 4 2 1 0 2 2 1 2 2 2 5 9 11 12 11 11 11 13 13 12 12 11 11 12 13 13 14 15 15 14 14 13 11 10 10 9 9 10
9 8 4 1 6 9 10 12 13 14 13 13 13 12 11 13 13 11 11 12 12 11 11 12 11 9 6 6 7 6 5 4 4 4 4 4 3 3 2 3 5 7 8 9 9 11 13 13 10 8 7 6 6 7 7 7 9 12 14 14 13 12 11 12 12 11 11 11 10 10 11 11 12 12 13 14 14 14 14 13 11 11 11 10 10
8 7 7 7 5 5 6 7 8 8 8 11 13 11 11 13 15 13 13 15 15 14 14 15 15 13 10 8 8 6 5 4 4 5 5 4 5 6 4 5 10 12 12 12 13 15 17 17 15 13 12 12 12 13 13 13 14 15 14 14 13 11 11 12 12 11 12 11 11 11 12 12 13 13 13 14 14 14 15 14 13 12 12 11 10
9 9 10 12 13 12 10 8 7 7 7 10 11 10 9 12 15 16 15 16 16 16 18 18 18 17 14 11 9 7 4 2 3 5 5 6 7 7 7 10 14 17 18 18 17 18 20 20 19 17 18 18 19 19 19 18 19 18 16 15 14 13 13 13 12 12 12 12 12 13 14 14 15 15 14 14 14 14 13 13 12 11 11 11 11
10 11 12 15 15 15 14 13 12 11 12 12 12 12 13 13 13 14 16 18 19 19 21 23 22 20 18 15 13 10 7 5 2 3 5 6 7 10 14 18 20 22 24 22 19 20 23 23 21 20 21 22 22 23 23 23 22 21 19 18 19 17 16 16 16 14 14 14 14 15 14 14 14 14 13 13 13 13 12 11 11 11 10 10 10
11 12 13 14 15 15 16 18 18 16 16 18 19 18 17 18 17 15 16 19 20 19 20 23 23 20 19 19 18 16 14 12 10 9 11 13 17 20 24 26 26 28 28 24 21 23 26 25 24 25 25 25 25 26 26 25 25 24 22 21 20 18 17 17 16 14 14 14 15 14 14 13 13 12 12 12 11 11 10 9 9 9 9 10 10
14 14 14 15 17 18 19 21 21 20 19 21 22 19 19 21 21 19 17 18 19 18 18 20 21 20 20 20 20 20 22 23 24 23 24 26 28 29 30 30 30 30 31 28 27 28 29 28 28 29 29 28 28 28 27 26 24 23 22 20 18 16 15 14 13 12 13 13 12 11 11 11 11 11 11 11 10 10 10 9 8 8 7 8 9
16 16 16 17 17 19 19 20 22 23 23 24 24 22 21 22 22 20 18 18 18 17 17 18 20 20 19 20 21 23 25 28 31 32 32 32 32 31 31 31 30 31 32 31 31 30 29 29 29 29 29 28 28 26 25 23 22 22 21 20 18 16 14 12 12 12 12 11 10 10 10 9 9 9 9 10 10 10 9 8 7 7 6 6 7
16 17 19 19 18 17 17 17 19 21 22 24 25 24 23 22 21 19 17 17 17 17 18 20 20 19 18 20 23 26 27 27 29 32 33 34 33 32 31 30 30 31 31 30 30 30 29 29 29 28 27 26 24 22 20 19 19 19 18 18 17 16 14 13 12 12 11 11 10 10 9 8 8 8 8 9 9 9 9 8 8 7 7 6 6
16 17 18 20 20 20 22 23 22 22 23 24 23 22 22 22 21 17 14 13 14 15 17 19 19 18 18 20 23 26 26 27 27 28 30 31 30 30 30 28 27 28 29 28 28 27 26 25 23 21 20 19 18 18 17 16 16 16 15 15 14 14 14 14 13 13 12 11 10 9 9 9 8 7 7 8 8 9 9 8 8 8 7 6 6
15 16 16 17 19 20 24 26 25 26 28 30 28 24 22 21 21 19 15 14 14 14 16 16 16 17 20 20 21 22 23 24 26 26 27 28 27 25 23 22 22 24 24 23 21 19 18 17 16 14 14 14 14 14 14 14 14 14 14 14 13 12 12 13 13 12 11 10 10 9 9 8 9 8 8 7 7 8 8 8 7 7 7 6 6
13 14 14 15 15 16 18 20 20 21 23 26 28 28 27 24 23 22 20 18 17 18 19 20 20 23 24 22 21 23 25 25 26 26 27 27 26 24 22 22 24 24 22 19 17 15 14 14 13 13 13 12 12 12 12 13 13 13 14 14 13 13 13 12 12 11 11 10 10 10 9 9 9 9 8 8 7 7 7 7 7 7 7 7 7
14 13 13 13 13 13 15 16 16 16 17 19 21 24 27 29 27 25 23 22 22 23 24 24 24 25 27 27 26 27 27 27 25 25 25 25 24 24 24 25 25 22 19 16 15 14 13 13 13 13 12 12 12 12 12 12 12 12 13 13 14 14 13 12 12 11 10 10 10 10 10 10 10 9 9 9 8 7 7 8 8 7 7 7 8
15 14 14 14 13 14 14 15 16 16 17 17 17 18 21 25 27 27 26 24 24 25 25 25 25 25 26 27 28 27 25 24 24 24 24 23 23 24 24 24 21 18 16 15 15 14 14 14 13 13 12 13 13 12 12 13 12 12 12 13 14 14 13 12 11 11 11 11 10 10 10 10 9 9 9 8 8 8 8 8 9 9 8 8 8
15 14 14 14 13 13 14 14 15 15 16 16 16 17 18 19 21 24 26 26 26 26 25 25 24 24 23 23 24 24 23 23 22 22 22 22 22 22 22 20 18 16 15 14 15 14 14 13 13 13 13 13 13 12 12 12 12 12 12 13 13 12 12 12 11 10 10 10 10 10 10 9 9 8 8 8 8 7 7 8 9 9 9 9 8
15 14 14 14 13 13 12 12 13 15 15 15 16 17 18 18 18 19 21 23 23 23 23 23 21 21 21 21 21 21 22 21 21 20 20 19 19 20 20 18 16 15 15 14 14 14 13 13 13 13 12 13 12 12 12 12 12 12 12 12 12 12 11 11 11 10 10 10 10 10 9 9 9 8 8 8 9 8 8 9 9 10 10 10 9
14 14 13 13 13 13 12 12 13 13 14 14 15 15 15 16 16 17 17 18 18 18 20 21 20 19 20 20 19 19 19 19 18 18 17 17 18 18 16 15 13 13 13 13 13 13 13 13 13 12 12 12 12 12 12 12 12 12 11 11 12 12 12 12 11 10 10 9 9 9 9 9 9 8 7 8 8 8 8 9 9 10 10 10 9
12 12 12 12 12 12 12 12 12 12 12 13 13 14 15 15 16 17 17 17 17 16 17 19 20 19 19 19 18 17 17 17 17 17 18 17 15 12 11 11 11 12 12 12 12 13 12 12 13 12 12 12 12 12 12 12 12 12 12 12 12 12 12 12 12 10 9 9 9 8 8 8 8 8 7 7 8 8 8 8 8 8 9 10 10
9 10 10 11 12 12 12 11 11 11 12 12 13 14 14 15 15 16 16 16 17 16 16 16 17 17 17 17 17 17 16 16 17 17 16 13 10 8 9 10 11 11 11 11 11 12 12 12 12 12 12 11 11 10 10 10 10 10 10 11 11 10 10 10 10 9 8 8 8 8 8 8 8 8 8 8 8 8 8 9 8 8 8 9 9
8 9 10 10 10 11 11 11 11 11 11 12 12 13 14 14 14 15 15 15 16 15 14 14 14 13 13 13 13 15 16 16 16 15 13 10 10 10 10 10 10 11 11 11 11 11 12 11 11 11 11 10 10 9 9 9 9 8 8 8 9 9 9 9 9 9 8 8 7 7 7 8 8 8 8 8 8 8 8 9 9 9 8 9 9
7 8 9 9 9 10 11 10 10 10 10 11 11 12 13 14 14 14 14 15 15 14 14 13 13 13 12 12 12 13 14 14 13 12 10 10 10 10 10 10 10 11 11 11 11 11 11 11 11 10 10 9 9 9 8 8 8 8 8 8 8 9 10 10 10 9 9 8 7 7 7 7 7 8 8 8 8 8 8 8 9 9 9 9 10
6 7 8 8 7 9 11 10 9 9 9 10 10 11 11 12 12 12 13 13 13 13 13 12 12 11 11 10 9 9 10 10 10 9 9 9 9 9 9 10 10 10 10 11 10 10 11 11 10 9 9 9 8 8 7 7 7 8 8 8 9 9 10 10 10 10 9 8 7 7 7 7 7 7 7 7 7 8 8 8 9 9 9 9 10
7 7 8 7 7 8 9 8 8 9 9 9 10 10 10 10 10 10 11 11 11 11 11 11 10 10 11 11 9 7 7 9 9 9 8 9 9 9 9 9 9 10 11 11 10 10 10 10 10 9 8 8 7 7 7 7 7 7 8 8 9 9 9 9 10 9 8 7 7 6 6 6 6 6 7 7 7 7 8 9 9 9 9 9 10
8 8 8 8 7 7 7 7 8 8 8 8 8 8 9 9 9 9 9 9 9 10 10 9 10 10 11 11 10 7 6 7 8 8 8 8 8 8 8 8 9 9 10 10 10 10 10 10 9 9 8 8 7 7 7 6 6 7 7 8 9 9 9 9 9 8 7 6 6 6 6 6 6 6 7 8 7 7 8 9 9 9 9 9 10
7 8 8 7 7 6 7 7 7 7 7 8 7 7 7 8 8 8 8 8 8 9 9 9 9 9 9 9 8 6 5 6 6 7 7 7 8 8 8 8 9 9 10 10 11 10 10 10 9 8 8 8 7 7 6 6 6 6 6 7 8 8 9 9 9 8 7 6 5 5 5 6 6 6 7 7 7 7 8 8 9 9 9 9 10
7 7 6 6 6 6 6 6 6 6 6 7 6 6 6 7 7 7 8 8 7 8 8 9 9 9 8 8 6 5 5 6 6 6 6 7 7 7 7 8 10 10 10 10 11 10 10 10 9 9 9 8 7 7 7 7 7 6 6 7 7 8 8 7 8 7 7 5 4 4 4 5 5 5 5 6 6 6 7 8 9 9 9 9 9
8 7 6 5 6 6 6 5 6 7 7 6 6 6 6 6 6 7 7 8 8 7 7 8 9 9 8 8 7 6 6 6 5 5 5 6 6 6 7 9 10 11 11 11 11 10 9 9 9 9 9 8 7 7 7 7 6 6 6 7 7 6 6 6 6 6 5 5 4 4 4 4 5 5 5 5 6 6 6 7 7 8 8 8 9
8 7 7 7 7 7 7 7 7 7 7 7 7 7 7 7 7 7 7 7 7 8 7 8 8 7 7 7 6 6 6 5 4 4 4 5 6 7 9 10 11 11 11 11 11 10 9 9 9 9 8 7 7 6 6 6 5 5 6 6 6 5 5 4 5 5 4 4 4 4 3 3 4 4 5 5 5 5 6 6 7 7 7 8 8
7 7 8 8 8 8 9 8 8 7 7 7 7 7 7 8 8 7 7 7 7 7 7 7 7 7 7 6 6 5 5 4 4 4 5 6 7 9 11 12 11 11 11 12 11 10 10 9 8 8 8 8 7 6 5 5 4 4 5 5 5 4 2 2 3 4 3 3 4 3 3 3 4 4 5 5 5 5 5 5 6 6 7 7 8
8 7 8 9 9 9 9 8 8 7 7 7 6 6 6 7 7 7 7 6 6 6 6 7 7 6 6 6 5 5 4 4 4 4 6 7 9 11 12 12 11 12 12 11 11 10 10 9 9 8 8 7 6 6 5 4 3 4 4 4 4 1 2 2 2 2 2 2 3 3 3 3 4 4 5 5 5 5 5 5 5 6 6 7 8
8 8 9 9 9 8 8 8 7 7 6 6 6 5 5 5 5 5 5 5 5 4 5 5 6 6 6 5 5 4 4 4 4 5 6 8 10 11 11 11 11 12 12 11 11 10 10 9 9 8 7 6 6 5 4 4 4 4 3 3 2 2 4 4 4 4 3 2 3 2 2 3 3 3 4 4 4 4 5 5 5 5 6 7 8
8 8 9 9 8 8 7 7 6 6 6 5 5 5 4 4 4 4 4 4 4 4 4 4 4 4 4 4 4 4 4 5 5 7 8 9 10 10 10 11 11 11 11 10 10 10 9 8 8 8 7 6 5 4 4 4 3 3 2 2 3 5 5 5 5 4 2 2 2 2 2 2 3 3 3 4 4 4 4 5 5 6 6 7 8
8 9 9 8 8 7 7 6 6 5 5 4 4 5 5 5 5 5 5 5 5 5 5 5 5 5 5 5 5 5 6 6 7 8 9 10 10 10 10 11 11 11 10 10 9 8 8 7 7 7 6 5 5 4 4 3 3 3 3 5 6 6 6 6 5 4 3 3 3 2 1 1 2 2 3 3 4 4 4 5 5 6 6 7 8
Wind_Direction
219 216 215 216 211 205 206 209 211 210 207 207 210 212 212 211 212 213 213 214 213 211 213 216 220 222 223 226 228 227 226 228 229 227 227 231 237 244 245 239 243 252 256 258 262 264 262 265 272 272 272 277 284 293 298 295 286 282 282 282 286 289 285 285 290 295 300 300 299 297 296 300 293 273 276 274 274 292 275 247 241 243 240 236 234
222 218 216 218 216 211 208 207 209 213 212 208 208 210 212 212 212 213 214 214 213 213 214 216 218 220 222 224 228 231 229 228 232 233 233 234 238 242 242 239 243 249 255 258 263 267 263 263 269 273 283 293 296 300 305 302 291 283 283 285 285 286 276 266 277 284 288 288 290 289 283 280 281 269 256 263 264 268 272 262 249 246 246 246 239
226 221 219 220 218 215 213 210 209 211 214 213 211 210 210 212 213 215 216 216 214 214 216 218 218 218 222 224 225 230 230 228 231 234 236 238 242 247 249 247 249 253 258 261 265 267 267 272 279 289 304 305 294 286 284 284 285 281 279 280 281 281 276 257 260 273 282 284 283 283 281 273 273 269 257 260 262 255 258 263 263 259 255 260 260
230 225 222 223 223 219 216 215 213 211 213 215 215 214 212 211 212 215 218 218 216 215 216 219 219 217 220 224 226 229 229 228 229 232 236 239 243 249 253 256 258 261 265 267 269 273 279 286 289 293 298 293 286 284 278 272 276 277 272 271 270 272 273 262 258 269 281 286 285 284 285 274 264 264 264 264 261 254 255 261 265 266 264 266 268
231 229 226 226 227 225 219 216 215 213 214 216 216 216 215 213 212 213 216 219 218 217 215 217 217 216 218 223 227 229 229 228 229 232 236 239 243 247 251 256 260 262 266 267 269 272 269 274 282 285 286 285 283 283 276 268 271 275 273 270 266 267 269 265 261 261 270 282 284 282 282 277 270 263 263 270 273 265 259 262 263 264 268 271 266
226 229 230 228 228 229 225 219 217 215 215 218 218 217 217 217 215 212 213 216 218 219 218 216 217 217 218 224 228 229 229 229 230 233 237 242 246 246 248 252 254 256 261 260 256 260 260 264 273 275 276 277 276 274 269 266 266 266 266 268 266 264 264 261 256 253 258 269 275 280 290 297 301 295 278 278 291 287 275 269 262 254 259 272 274
221 223 227 228 228 228 227 223 220 218 216 218 220 219 219 218 218 216 214 214 215 218 219 219 219 218 220 226 231 232 231 231 234 237 240 245 245 245 247 248 248 252 253 245 246 258 266 262 259 262 266 267 265 264 262 260 260 261 263 263 262 262 264 266 261 256 261 265 266 273 286 289 293 293 284 277 283 289 288 280 269 263 261 267 275
220 220 220 224 226 226 225 225 223 221 220 219 220 221 221 220 221 220 218 217 217 217 218 219 220 221 224 228 233 236 235 234 236 237 238 242 243 244 246 244 247 251 238 236 254 265 265 260 260 268 273 265 258 257 257 255 255 259 262 260 259 259 263 267 263 253 259 266 267 271 276 273 276 279 280 275 269 271 277 277 274 274 268 260 267
222 220 219 220 222 222 221 221 221 220 219 219 219 221 223 223 223 223 223 223 223 222 220 220 221 222 224 228 231 234 236 236 237 235 234 238 241 245 248 246 248 249 228 230 256 259 246 249 258 271 276 270 264 260 255 251 252 258 263 262 257 253 253 256 255 252 256 262 265 269 269 267 267 266 267 269 273 284 289 286 280 278 277 272 265
227 224 221 219 220 219 215 214 214 213 213 217 219 221 223 223 222 222 223 225 227 227 225 224 224 223 225 229 230 229 232 234 234 233 236 242 246 249 252 250 245 243 234 233 243 242 236 237 247 267 280 274 262 259 257 254 254 258 260 255 248 243 244 247 248 250 255 259 260 260 259 261 260 260 265 272 294 317 310 297 294 300 299 292 285
230 227 223 221 219 218 214 208 206 206 206 210 213 215 219 222 222 218 217 220 224 226 229 228 228 227 229 232 232 230 231 230 227 232 244 253 253 247 249 248 238 236 239 235 232 235 236 234 237 257 275 266 252 257 262 257 254 254 251 244 239 236 239 245 249 251 252 255 259 257 258 263 266 270 279 290 310 316 306 302 309 317 314 306 302
230 227 225 223 220 218 215 207 202 205 209 210 208 206 210 215 218 217 216 216 217 222 228 230 229 231 232 233 232 231 230 226 226 235 247 250 243 235 242 246 238 234 237 233 234 240 240 238 241 249 255 254 250 254 259 255 249 245 240 236 236 234 233 233 237 247 256 260 260 258 261 272 279 288 301 312 314 307 306 309 311 314 312 305 298
234 226 223 224 221 219 217 211 206 208 213 215 211 206 204 206 212 219 220 217 215 218 223 226 227 230 232 234 234 232 226 223 228 237 242 242 241 234 235 243 240 237 236 229 233 242 241 237 244 247 245 247 247 243 240 239 239 237 231 229 232 239 242 239 234 239 252 262 265 265 272 290 302 311 327 327 312 303 305 307 303 301 296 292 294
239 228 221 221 220 218 216 214 212 212 213 215 213 209 207 208 213 220 221 217 215 215 217 221 223 225 228 232 233 226 215 216 222 232 237 241 247 242 236 242 242 240 243 240 243 251 248 240 243 245 239 237 240 237 231 230 231 228 220 216 218 231 250 257 243 238 244 258 282 298 308 327 329 323 330 332 319 310 306 307 309 305 296 289 293
241 231 224 221 220 218 215 212 214 216 213 211 210 210 210 211 213 217 219 219 217 214 214 216 216 217 220 223 219 208 209 216 223 233 237 239 247 250 243 241 242 244 246 244 248 260 265 260 259 258 252 243 236 232 231 234 235 225 214 203 196 200 329 20 335 254 227 221 45 33 17 8 357 341 337 337 330 317 306 301 300 299 299 301 304
244 228 222 222 220 218 214 207 208 216 217 213 212 212 212 213 213 212 214 219 218 214 214 213 210 206 205 206 202 199 215 225 230 237 240 241 250 253 240 238 247 252 254 255 265 278 285 276 268 267 263 249 238 234 232 234 242 241 224 185 142 78 46 41 29 25 37 49 57 56 45 26 15 2 350 347 342 322 306 306 307 304 303 305 308
265 224 213 212 212 212 211 206 206 213 217 217 217 216 214 214 214 213 213 214 214 211 206 201 199 195 193 197 193 186 209 226 229 233 239 240 243 243 244 253 259 262 279 315 326 327 317 286 273 277 276 257 245 242 235 232 246 252 197 123 107 93 76 70 64 57 58 59 56 55 53 46 38 30 21 17 11 353 343 353 350 331 319 315 314
347 273 220 212 215 219 217 213 211 213 215 215 216 217 216 213 211 212 210 202 193 191 182 173 180 182 178 183 174 157 177 213 215 222 236 234 224 224 240 257 265 272 324 40 10 7 342 275 254 249 263 262 249 242 234 234 256 265 121 106 95 94 102 96 88 80 74 69 66 63 58 54 49 46 45 45 44 45 42 31 15 359 356 2 342
4 353 294 215 214 219 219 218 218 218 217 215 213 212 211 208 205 204 199 184 174 173 167 160 163 164 161 170 172 161 162 193 208 223 236 232 213 199 220 230 213 174 111 98 87 80 76 60 61 122 6 297 256 194 164 181 148 92 97 100 93 91 96 96 90 82 73 68 69 66 58 54 52 48 46 45 47 52 51 41 34 34 36 32 14
6 9 18 140 185 194 205 215 219 219 215 210 210 214 214 208 200 191 182 178 175 170 161 152 143 133 131 146 156 158 159 171 195 217 230 235 201 159 161 172 150 124 105 96 88 84 83 76 71 73 72 76 94 100 103 116 113 99 96 94 88 85 90 92 88 82 74 68 68 65 59 58 57 52 48 45 43 46 45 42 42 44 44 42 36
14 23 42 59 83 120 151 178 192 197 190 186 191 200 205 200 193 183 174 172 172 165 152 144 136 127 123 123 123 127 140 156 180 203 216 212 178 152 146 153 139 119 106 103 98 92 89 87 85 85 86 91 96 98 101 107 107 100 94 94 96 100 99 93 87 85 81 76 71 67 61 58 55 51 49 46 42 41 42 40 40 43 47 46 41
36 45 60 68 71 77 87 104 121 128 137 155 164 161 162 174 179 177 169 160 155 149 142 137 131 123 121 120 114 106 105 129 183 202 205 198 182 160 140 140 137 124 113 107 102 98 96 95 93 93 93 92 93 94 96 96 96 96 97 101 105 102 95 89 85 83 80 76 71 64 57 52 49 45 43 41 38 38 39 39 38 41 46 48 44
54 58 66 74 73 72 75 80 87 96 107 120 126 121 120 129 136 140 142 138 131 124 122 120 116 111 107 104 97 89 83 82 117 169 175 173 161 141 133 133 131 123 115 108 103 102 101 99 97 96 94 93 92 92 92 91 92 96 100 100 96 89 87 87 84 79 75 71 65 59 52 49 45 40 37 36 35 36 36 37 40 42 43 44 44
62 62 67 73 73 70 74 78 81 86 96 104 106 105 108 111 106 101 108 114 112 106 105 106 106 103 98 93 87 82 82 84 90 108 124 129 129 129 128 126 122 116 111 107 105 105 105 104 103 100 97 96 95 94 94 94 95 96 94 89 84 81 81 81 77 72 69 65 61 58 54 50 45 39 35 34 35 37 37 38 40 41 44 45 43
67 65 67 72 74 76 78 81 82 85 90 96 96 95 97 100 99 95 94 98 100 101 101 102 101 98 94 92 89 86 89 92 97 104 113 117 119 120 118 116 113 111 108 107 107 107 106 106 105 103 100 99 97 94 91 90 91 92 89 86 80 74 72 72 69 66 65 62 60 59 56 51 45 39 35 34 36 37 37 37 39 41 45 47 45
70 68 68 69 73 78 81 82 84 86 87 89 90 89 89 89 89 90 91 94 99 102 101 98 96 95 95 96 96 94 95 97 100 105 109 110 110 110 110 109 109 108 108 108 108 108 108 108 106 105 103 100 96 91 86 84 84 83 81 80 76 70 66 66 64 62 61 59 56 53 50 46 42 38 34 34 35 32 27 27 30 34 36 35 37
72 70 70 71 73 74 76 78 77 76 76 78 80 81 84 87 88 87 84 87 91 94 95 95 96 97 99 100 100 99 99 101 102 105 107 109 109 108 108 107 108 108 108 110 111 110 110 108 105 103 101 97 91 86 81 79 78 75 72 71 70 67 65 63 61 59 57 54 51 47 44 41 39 38 36 36 34 30 24 22 22 22 21 20 23
78 76 75 74 73 74 79 81 78 76 78 80 80 80 83 87 90 89 89 92 93 96 98 98 100 104 107 107 105 103 103 106 107 109 110 111 110 110 109 108 108 110 112 113 112 110 106 102 99 97 93 89 86 82 78 74 72 70 69 68 66 65 63 60 58 55 51 48 46 42 38 37 35 32 33 35 34 27 22 20 19 16 13 15 21
81 84 83 81 80 81 84 84 81 80 82 82 81 81 83 87 89 90 95 101 105 110 108 103 105 113 114 111 109 107 107 111 114 116 118 118 116 115 115 114 115 118 118 117 115 112 107 102 99 95 91 88 85 82 79 75 71 67 65 63 61 59 57 54 52 49 43 40 40 36 32 33 31 28 27 30 33 30 24 20 17 13 11 15 24
79 82 83 86 90 92 90 87 83 81 81 81 80 79 80 84 89 94 98 102 108 114 115 113 117 122 119 115 115 116 116 119 121 122 123 123 121 122 124 124 123 121 119 116 113 109 104 99 94 90 87 86 84 81 78 76 73 69 64 60 57 54 52 48 45 43 40 38 36 31 29 29 27 25 23 22 23 28 25 20 16 14 13 16 22
76 76 77 83 89 93 92 89 86 83 82 82 83 82 80 80 82 88 97 103 105 106 110 114 119 121 118 116 118 119 119 122 124 124 123 121 119 120 123 123 121 117 113 110 105 100 96 93 89 87 86 84 83 81 78 74 71 68 65 61 55 51 49 44 37 35 35 35 32 29 26 25 23 21 20 16 14 19 22 19 18 16 16 19 20
81 82 85 87 89 91 92 91 89 88 86 83 82 84 84 81 79 81 89 99 102 103 105 109 112 114 115 117 119 120 121 123 123 121 120 119 118 120 122 120 115 111 108 104 99 95 93 92 90 88 86 83 79 77 74 71 68 65 63 60 55 50 45 37 31 31 32 29 27 25 23 21 19 18 16 13 11 14 18 19 18 16 14 17 19
87 90 94 96 95 94 95 95 94 94 93 89 86 85 86 85 83 82 85 91 97 102 104 106 107 108 110 113 116 118 120 122 122 121 120 120 121 125 124 117 110 106 103 99 96 95 94 93 91 89 87 84 80 76 73 71 67 64 61 58 54 47 40 32 28 28 28 24 23 22 19 16 14 13 14 14 11 12 16 17 18 16 11 10 12
87 90 95 101 104 102 100 100 99 99 97 96 95 93 91 91 92 91 89 88 89 92 96 100 103 105 107 109 112 115 118 121 122 122 121 122 125 128 123 113 104 100 97 95 97 98 97 95 93 91 88 85 81 77 73 69 66 63 60 55 51 45 38 33 29 26 23 21 21 19 15 12 10 10 13 15 12 12 16 18 19 18 11 7 7
94 93 94 99 103 105 106 104 103 103 102 100 100 100 99 98 98 96 95 93 89 86 88 94 99 103 106 109 111 114 117 121 121 121 120 120 123 124 119 109 101 96 93 92 94 97 98 98 95 92 89 86 81 77 73 69 64 61 57 54 50 44 38 33 27 22 20 19 19 16 13 11 11 8 12 20 18 16 19 20 20 20 13 6 4
102 101 99 99 100 102 106 107 106 104 104 104 103 103 103 104 104 102 100 100 99 95 93 96 101 103 104 106 109 111 115 118 120 121 121 120 119 118 112 105 101 97 94 93 96 97 98 98 97 95 92 88 84 81 76 72 68 63 58 53 48 43 39 34 27 19 16 17 18 16 13 15 15 11 14 23 21 17 19 17 16 21 17 5 359
107 107 106 106 106 105 104 105 106 106 105 106 106 106 107 108 109 110 108 106 105 104 104 104 105 104 103 105 108 109 112 116 121 124 122 115 110 109 106 103 104 103 101 101 102 101 101 100 99 97 94 90 86 82 78 74 70 66 62 56 49 43 38 33 26 19 15 16 19 18 16 20 21 17 19 24 21 18 18 12 8 15 17 8 1
101 108 112 113 116 116 113 111 111 111 110 111 111 113 114 115 115 116 116 116 115 115 116 117 116 113 114 116 115 114 116 121 126 128 122 110 103 106 107 106 107 108 107 107 108 108 105 103 101 98 95 91 86 81 76 71 66 60 58 54 47 41 35 29 25 20 17 17 19 20 21 24 23 19 20 22 21 17 15 12 8 8 9 10 9
91 102 109 110 116 124 126 127 126 122 118 117 118 119 120 122 123 123 123 125 127 126 126 127 125 123 125 131 135 136 136 136 135 132 126 119 116 115 115 113 112 112 113 113 113 112 109 106 103 100 97 92 87 80 74 68 62 56 49 44 40 37 32 26 23 20 18 18 20 20 22 21 18 16 17 18 18 16 12 11 13 9 6 10 10
100 100 103 105 117 128 133 138 141 140 136 132 131 130 130 129 130 130 129 129 130 130 129 129 127 128 134 143 149 151 145 137 132 128 125 122 122 120 120 121 120 120 120 119 118 118 115 112 108 103 98 93 87 78 69 64 59 52 45 37 32 31 29 26 23 20 18 20 21 21 22 20 15 15 19 17 17 19 14 12 14 14 11 12 9
123 121 117 115 124 133 137 138 138 140 144 146 145 143 140 138 139 140 139 137 136 134 130 127 126 132 141 144 142 139 134 131 133 134 131 130 129 125 124 126 127 126 127 126 124 124 122 118 114 109 102 93 84 75 67 60 52 46 41 34 29 25 23 22 20 18 19 22 23 23 26 25 22 24 25 19 14 18 18 14 12 11 10 13 11
131 134 134 135 140 141 137 133 131 132 138 145 146 145 145 146 149 150 149 150 151 147 141 134 131 135 138 135 131 131 133 133 136 138 137 135 134 129 127 129 130 130 131 131 129 128 126 122 118 112 103 95 87 78 67 57 49 43 37 31 27 21 17 16 16 15 16 23 25 24 25 25 24 25 24 17 12 14 15 13 9 7 7 11 15
131 133 134 139 145 142 135 135 139 141 139 137 132 131 139 149 154 155 157 162 162 160 157 152 144 141 140 136 133 137 139 136 136 140 141 139 137 136 137 138 134 131 129 130 130 131 128 123 118 112 104 99 93 84 71 60 49 38 30 28 27 21 15 14 13 10 11 16 18 18 19 19 19 18 17 14 11 10 11 9 7 6 5 7 14
132 132 132 132 134 135 136 141 143 138 132 126 120 124 141 155 160 161 164 167 168 169 171 168 160 155 154 150 149 154 155 150 145 141 138 137 140 144 147 144 136 130 128 129 130 130 128 123 118 114 108 100 93 86 76 63 50 38 30 27 23 19 18 16 12 9 9 6 1 6 14 15 14 13 15 15 11 8 9 10 8 9 10 8 11
143 142 144 144 146 145 141 140 140 138 138 139 137 139 150 161 164 166 169 170 170 171 173 173 171 169 166 162 164 167 166 159 151 143 138 138 141 144 148 146 139 134 132 132 131 130 127 124 121 118 112 105 98 89 76 65 58 49 37 29 23 20 18 12 5 5 4 358 356 8 20 22 21 18 15 15 13 11 12 13 11 13 15 10 7
151 150 151 150 152 149 143 141 143 143 144 145 144 141 142 146 150 153 156 158 163 165 165 166 170 169 165 164 167 170 169 167 161 151 143 140 141 142 144 143 139 136 134 134 132 130 127 126 125 123 117 112 107 97 82 72 63 48 39 36 27 14 5 3 3 5 8 9 14 24 31 35 36 27 14 10 12 15 16 15 13 13 13 8 4
150 150 151 147 143 141 139 138 138 138 137 136 137 136 135 136 139 136 128 127 139 153 157 159 161 161 161 166 170 171 172 174 164 142 129 129 135 139 140 138 136 136 136 135 133 132 131 129 128 126 123 121 116 105 93 83 63 43 39 33 11 354 355 31 20 12 21 33 34 36 38 36 35 27 17 14 17 18 16 12 11 10 7 5 3
154 151 149 147 145 142 138 136 136 138 139 136 135 136 136 138 141 139 132 127 134 145 155 162 167 167 166 170 172 169 168 168 154 134 125 126 131 135 136 136 136 138 139 138 136 135 134 132 130 129 127 124 116 106 98 87 64 47 35 12 349 322 162 123 46 40 98 81 47 41 46 41 34 29 24 20 17 14 11 7 6 5 2 359 359
158 153 152 152 151 146 142 143 145 144 142 141 143 146 148 149 151 152 153 152 150 152 158 167 173 176 175 174 171 163 153 147 141 135 132 134 135 135 135 136 139 141 141 139 136 134 134 132 132 131 127 123 119 112 101 89 72 54 28 4 10 139 146 132 115 128 134 82 32 38 50 42 37 34 26 18 13 10 6 3 0 357 354 351 351
158 156 155 154 152 147 145 146 145 142 143 150 153 153 157 164 163 162 164 167 164 161 161 161 164 166 164 159 153 145 137 134 137 140 141 141 141 138 137 138 141 142 142 139 137 138 137 135 135 134 132 131 129 119 106 99 84 54 38 77 114 126 132 133 136 144 133 44 42 67 70 47 37 28 17 9 4 3 3 358 352 349 348 347 347
159 157 156 153 150 150 150 149 147 146 148 154 157 157 161 164 159 154 156 157 154 152 152 150 148 147 143 137 138 141 138 136 139 142 143 144 144 142 141 141 142 142 142 142 142 142 141 140 141 142 138 134 129 116 108 99 71 58 95 118 122 125 132 138 150 165 150 100 81 80 79 59 36 16 5 357 351 353 355 350 344 342 342 341 340